sat.trackr.live / text

‹ back to catalog

GITAI-SC1

NORAD 62388 · 2024-247M

PAYLOAD ACTIVE UNKNOWN

§ Identity

Operator
Country
US
Launch date
2024-12-21
Launch site
AFWTR
Launch vehicle
Mass (kg)
RCS (m²)

External: N2YO · Heavens-Above · Gunter

§ Orbital elements

Epoch: 2026-09-21T02:03:58.042944Z

Period
94.60 min
Inclination
45.0001°
Eccentricity
0.0000760
Mean motion
15.22177202 rev/d
Perigee alt
498.8 km
Apogee alt
499.8 km
Semi-major
6,877.4 km
B*
1.6531e-4
RAAN
152.7559°
Arg perigee
218.7664°
Mean anomaly
141.3163°
Rev number
9,734

§ Raw data

GITAI-SC11 62388U 24247M   26264.08608846  .00003584  00000+0  16531-3 0  99942 62388  45.0001 152.7559 0000760 218.7664 141.3163 15.22177202 97341

JSON: /api/v1/satellites/62388 · /tle

For live sub-satellite position, see the globe view (requires WebGL).

§ Visibility from observer

Set your observer location to see the next 7 days of passes ≥ 10°. The values pass through the URL so the page stays shareable.

No JS? Fill the form by hand. The geolocation button needs JavaScript.

§ Radio — SatNOGS DB

ModeDescriptionDownlinkUplink
FSK Mode S - FSK 32Kbps - Transmitter 2.264 GHz
QPSK Mode X - QPSK 4Mbps 8.200 GHz

2 transmitters · refreshed weekly from db.satnogs.org